Location: Winthrop
(48.4780°N, 120.1850°W)
Time: 19:36:17
(UTC-08:00)

Envisat - Pass Details

Date: 05 December 2022
Orbit: 763 x 765 km, 98.2° (Epoch: 05 February)

Event Time Altitude Azimuth Distance (km) Brightness Sun altitude
Rises 05:05:02 0° 8° (N) 3,245 6.3 -24.1°
Reaches altitude 10° 05:07:26 10° 2° (N) 2,314 5.4 -23.7°
Enters shadow 05:09:33 23° 349° (N) 1,575 4.4 -23.4°
